Regional Weather Roundup
Issued by NWS

Home | Current Version | Previous Version | Text Only | Print | Product List | Glossary Off
Versions: 1 2 3 4 5 6 7 8 9 10 11 12 13 14 15 16 17 18 19 20 21 22 23 24 25 26 27 28 29 30 31 32 33 34 35 36 37 38 39 40 41 42 43 44 45 46 47 48 49 50

000
ASUS43 KLMK 010602
RWRKY
KENTUCKY REGIONAL WEATHER ROUNDUP
NATIONAL WEATHER SERVICE LOUISVILLE KY
200 AM EDT MON SEP 01 2014

NOTE "FAIR" INDICATES FEW OR NO CLOUDS BELOW 12,000 FEET
WITH NO SIGNIFICANT WEATHER AND/OR OBSTRUCTIONS TO VISIBILITY.

KYZ001>023-026-027-061>063-070>075-010700-
WESTERN AND SOUTH CENTRAL KENTUCKY

CITY           SKY/WX    TMP DP  RH WIND       PRES   REMARKS
PADUCAH        FAIR      78  73  84 S7        29.96S
HENDERSON      FAIR      73  70  88 S7        29.97R
OWENSBORO      NOT AVBL
HOPKINSVILLE   FAIR      74  74 100 S6        30.02R
BOWLING GREEN  FAIR      74  71  91 S6        30.03R
GLASGOW        FAIR      72  72 100 CALM      30.04S
$$

KYZ024-025-028>034-038-045-046-053-010700-
NORTH CENTRAL KENTUCKY

CITY           SKY/WX    TMP DP  RH WIND       PRES   REMARKS
LOUISVILLE/SDF FAIR      76  72  87 S6        30.01R
LOUISVILLE/LOU CLOUDY    74  72  93 CALM      30.02R
FORT KNOX      FAIR      71  71 100 S3        30.02R
$$

KYZ035>037-039>044-047>052-055>060-089>105-010700-
NORTHEAST KENTUCKY

CITY           SKY/WX    TMP DP  RH WIND       PRES   REMARKS
LEXINGTON      CLOUDY    75  71  87 S8        30.04S
COVINGTON      CLOUDY    72  70  93 S5        30.01R
FRANKFORT      CLOUDY    73  72  96 SW6       30.02R
$$

KYZ054-064>069-076>088-106>120-010700-
SOUTHEAST KENTUCKY

CITY           SKY/WX    TMP DP  RH WIND       PRES   REMARKS
JACKSON        MOCLDY    71  69  93 CALM      30.08R
LONDON         CLOUDY    73  68  84 SW3       30.09R
SOMERSET       MOCLDY    70  70 100 CALM      30.08S
MIDDLESBORO    FAIR      68  68 100 CALM      30.11S
MONTICELLO     FAIR      73  71  93 CALM      30.09R
$$




USA.gov is the U.S. government's official web portal to all federal, state and local government web resources and services.